Volver al catálogo

TITAN 3C TRANSTAGE DEB

ActivoMEO
NORAD 43454·DEBRIS·🇺🇸 United States

Lanzado Feb 9, 1969 desde Cape Canaveral Space Force Station

Loading…

Próximos Pases (próximas 24 horas)

TLE

ActualizadoSource: Space-Track

Época: Sep 13, 2026, 17:31 UTC

1 43454U 69013M   26256.73028570 -.00000164  00000-0  00000-0 0  9994
2 43454   1.3231 115.7046 0543501 358.4542   2.1896  1.02845854 31541

Sigue TITAN 3C TRANSTAGE DEB en tiempo real con AllMySat

Download on the App Store